STARLINK-36869, 67954

Orbit data source: Space-Track

STARLINK-36869, 67954 is a payload satellite owned by SpaceX/Seattle (US) in LEO that was launched on Tue, 24 Feb 2026 UTC via an FALCON 9 launch vehicle from the Air Force Eastern Test Range (AFETR). Payload-class satellites include a variety of spacecraft equipped with specific instruments for various scientific and technological missions. These include communications satellites like Starlink; space stations such as the ISS; scientific satellites like the Hubble; Earth observation satellites from companies like Planet Labs, Umbra, and HawkEye 360; GPS; miniature CubeSats for education and research; and military/defense satellites.

Loading next visibility...
Identifier
67954, 2026-037Y
Orbit
LEO
Country
Flag of USUS
Related business
Manufacturer
SpaceX/Seattle
Mission
Operational Commercial Communications
Bus & Motor
STARLINK V2MO, Unknown motor
Mass
575 kg wet, ~530 kg dry
Launch date (UTC)
2026-02-24 (4 months ago)
Launch vehicle
FALCON 9
Launch site
Air Force Eastern Test Range (AFETR)
Object type
Payload
Rocket body
Debris
Shape & HBR
Box + 2 Pan, 17.7 m
Radar Cross Section
36.964 m², Large (>1 m²)

Expand to show TLE details & history
Last TLE update: 10 hours ago

TLE from 10 hours ago
0 STARLINK-36869
1 67954U 26037Y   26171.43870889  .00012025  00000-0  44556-3 0  9990
2 67954  43.0044 330.5685 0001396 255.9572 104.1124 15.27596422 19053
Epoch: 2026-06-20T10:31Z
TLE epoch observation values (Epoch: 2026-06-20T10:31:44.448Z)
Latitude
-0.00004°
Longitude
-96.02007°
Altitude
483.009 km
Speed
7.626 km/s
True Right ascension
22h 02m 16s
True Declination
0° 00' 00"
Sunlit
Object was in full shadow at epoch
Visualization orbit readout
Latitude
Unknown
Longitude
Unknown
Altitude
Unknown
Speed
Unknown
Apparent Right ascension
Unknown
Apparent Declination
Unknown
Sunlit
N/A
Visualization observer readout
Local Sidereal Time
07:17:21
Azimuth
Unknown
Elevation
Unknown
Doppler factor
Unknown
Orbital elements
Apogee altitude
485.902 km
Perigee altitude
483.986 km
Semi-major axis
6,863.081 km
Eccentricity
0.00014
Inclination
43.0044°
RAAN
330.5685°
Arg. of periapsis
255.9572°
True anomaly
104.12791°
Mean anomaly
104.1124°
Eccentric anomaly
104.12016°
Mean motion
3.81737 °/min
Orbital period
94.31 mins
BSTAR
0.00044556
Loading maneuver chart data...
Computing Atmospheric mass density...
Loading historical data...
Loading historical data...
Loading historical data...
Loading historical data...
Loading historical data...
Loading historical data...
Loading historical data...

Documentation

Showing up to 5 results
|